When you browse on this site, cookies collect data to enhance your experience and personalize the content and advertising you see.
Visit our Privacy Policy to learn more. By continuing to use the site, you agree to this use of cookies and data.
  • Em Portugal
  • Lista de países
  • Para 7 dias
  • Temperatura da água
  • Mapas de satélite
  • Mapa do tempo
  • Widgets de tempo
  • user-avatar
    Iniciar Sessão

    Previsão horária em Sinemorec

    Hoje, 26 Maio, Domingo

    Tempo Temperatura Precipitação Vento Pressão Humidade
    00:00 +16°C° 0 mm 2 m/s 758 mmHg 88%
    01:00 +16°C° 0 mm 2 m/s 758 mmHg 89%
    02:00 +16°C° 0 mm 2 m/s 758 mmHg 89%
    03:00 +16°C° 0 mm 2 m/s 759 mmHg 89%
    04:00 +15°C° 0 mm 2 m/s 759 mmHg 89%
    05:00 +15°C° 0 mm 2 m/s 759 mmHg 88%
    06:00 +18°C° 0 mm 2 m/s 759 mmHg 81%
    07:00 +20°C° 0 mm 2 m/s 759 mmHg 73%
    08:00 +23°C° 0 mm 1 m/s 760 mmHg 65%
    09:00 +25°C° 0 mm 1 m/s 760 mmHg 60%
    10:00 +26°C° 0 mm 1 m/s 760 mmHg 55%
    11:00 +28°C° 0 mm 2 m/s 760 mmHg 50%
    12:00 +27°C° 0 mm 2 m/s 760 mmHg 51%
    13:00 +27°C° 0 mm 3 m/s 760 mmHg 52%
    14:00 +27°C° 0 mm 3 m/s 760 mmHg 53%
    15:00 +27°C° 0 mm 3 m/s 760 mmHg 55%
    16:00 +26°C° 0 mm 3 m/s 760 mmHg 58%
    17:00 +26°C° 0 mm 3 m/s 760 mmHg 60%
    18:00 +24°C° 0 mm 3 m/s 760 mmHg 68%
    19:00 +21°C° 0 mm 3 m/s 760 mmHg 75%
    20:00 +19°C° 0 mm 2 m/s 760 mmHg 83%
    21:00 +19°C° 0 mm 2 m/s 760 mmHg 85%
    22:00 +18°C° 0 mm 2 m/s 760 mmHg 87%
    23:00 +18°C° 0 mm 2 m/s 760 mmHg 89%

    Amanhã, 27 Maio, Segunda-feira

    Tempo Temperatura Precipitação Vento Pressão Humidade
    00:00 +18°C° 0 mm 2 m/s 760 mmHg 90%
    01:00 +17°C° 0 mm 2 m/s 760 mmHg 90%
    02:00 +17°C° 0 mm 2 m/s 760 mmHg 90%
    03:00 +18°C° 0 mm 1 m/s 760 mmHg 90%
    04:00 +18°C° 0 mm 1 m/s 760 mmHg 90%
    05:00 +18°C° 0 mm 1 m/s 760 mmHg 90%
    06:00 +20°C° 0 mm 1 m/s 760 mmHg 81%
    07:00 +22°C° 0 mm 1 m/s 760 mmHg 72%
    08:00 +24°C° 0 mm 1 m/s 760 mmHg 63%
    09:00 +25°C° 0 mm 2 m/s 760 mmHg 58%
    10:00 +26°C° 0 mm 3 m/s 760 mmHg 54%
    11:00 +26°C° 0 mm 3 m/s 760 mmHg 49%
    12:00 +26°C° 0 mm 3 m/s 760 mmHg 50%
    13:00 +26°C° 0 mm 4 m/s 760 mmHg 51%
    14:00 +26°C° 0 mm 4 m/s 759 mmHg 52%
    15:00 +26°C° 0 mm 4 m/s 759 mmHg 55%
    16:00 +25°C° 0 mm 3 m/s 759 mmHg 58%
    17:00 +24°C° 0 mm 3 m/s 759 mmHg 61%
    18:00 +21°C° 0 mm 3 m/s 759 mmHg 72%
    19:00 +19°C° 0 mm 2 m/s 759 mmHg 82%
    20:00 +17°C° 0 mm 2 m/s 759 mmHg 93%
    21:00 +18°C° 0 mm 1 m/s 759 mmHg 93%
    22:00 +16°C° 0 mm 1 m/s 759 mmHg 93%
    23:00 +16°C° 0 mm 1 m/s 759 mmHg 92%

    Depois de amanhã, 28 Maio, Terça-feira

    Tempo Temperatura Precipitação Vento Pressão Humidade
    00:00 +16°C° 0 mm 1 m/s 758 mmHg 91%
    01:00 +16°C° 0 mm 1 m/s 758 mmHg 89%
    02:00 +16°C° 0 mm 1 m/s 758 mmHg 87%
    03:00 +16°C° 0 mm 1 m/s 757 mmHg 88%
    04:00 +15°C° 0 mm 0 m/s 757 mmHg 89%
    05:00 +15°C° 0 mm 0 m/s 757 mmHg 90%
    06:00 +17°C° 0 mm 0 m/s 757 mmHg 81%
    07:00 +22°C° 0 mm 1 m/s 757 mmHg 73%
    08:00 +25°C° 0 mm 1 m/s 757 mmHg 65%
    09:00 +26°C° 0 mm 1 m/s 757 mmHg 61%
    10:00 +28°C° 0 mm 2 m/s 756 mmHg 57%
    11:00 +30°C° 0 mm 2 m/s 756 mmHg 52%
    12:00 +30°C° 0 mm 3 m/s 756 mmHg 51%
    13:00 +30°C° 0 mm 3 m/s 756 mmHg 50%
    14:00 +32°C° 0 mm 4 m/s 755 mmHg 49%
    15:00 +30°C° 0 mm 4 m/s 755 mmHg 52%
    16:00 +30°C° 0 mm 4 m/s 755 mmHg 55%
    17:00 +29°C° 0 mm 4 m/s 754 mmHg 57%
    18:00 +27°C° 0 mm 4 m/s 754 mmHg 63%
    19:00 +25°C° 0 mm 4 m/s 754 mmHg 69%
    20:00 +22°C° 0 mm 4 m/s 754 mmHg 74%
    21:00 +22°C° 0 mm 4 m/s 754 mmHg 66%
    22:00 +21°C° 0 mm 4 m/s 755 mmHg 58%
    23:00 +21°C° 0 mm 4 m/s 755 mmHg 50%

    29 Maio, Quarta-feira

    Tempo Temperatura Precipitação Vento Pressão Humidade
    00:00 +21°C° 0 mm 4 m/s 755 mmHg 54%
    01:00 +21°C° 0 mm 5 m/s 755 mmHg 58%
    02:00 +20°C° 0 mm 5 m/s 755 mmHg 62%
    03:00 +20°C° 0 mm 5 m/s 755 mmHg 66%
    04:00 +19°C° 0 mm 4 m/s 755 mmHg 70%
    05:00 +19°C° 0 mm 4 m/s 755 mmHg 75%
    06:00 +21°C° 0 mm 3 m/s 755 mmHg 70%
    07:00 +24°C° 0 mm 3 m/s 755 mmHg 65%
    08:00 +25°C° 0 mm 2 m/s 755 mmHg 61%
    09:00 +27°C° 0 mm 2 m/s 756 mmHg 55%
    10:00 +28°C° 0 mm 2 m/s 756 mmHg 50%
    11:00 +30°C° 0 mm 2 m/s 756 mmHg 45%
    12:00 +30°C° 0 mm 3 m/s 756 mmHg 44%
    13:00 +31°C° 0 mm 3 m/s 756 mmHg 43%
    14:00 +31°C° 0 mm 3 m/s 755 mmHg 42%
    15:00 +31°C° 0 mm 3 m/s 755 mmHg 45%
    16:00 +30°C° 0 mm 4 m/s 755 mmHg 48%
    17:00 +30°C° 0 mm 4 m/s 755 mmHg 52%
    18:00 +28°C° 0 mm 4 m/s 755 mmHg 57%
    19:00 +25°C° 0 mm 4 m/s 756 mmHg 63%
    20:00 +22°C° 0 mm 4 m/s 756 mmHg 69%
    21:00 +21°C° 0 mm 4 m/s 756 mmHg 70%
    22:00 +20°C° 0 mm 3 m/s 756 mmHg 72%
    23:00 +19°C° 0 mm 3 m/s 756 mmHg 73%

    30 Maio, Quinta-feira

    Tempo Temperatura Precipitação Vento Pressão Humidade
    00:00 +19°C° 0 mm 3 m/s 756 mmHg 75%
    01:00 +18°C° 0 mm 3 m/s 756 mmHg 77%
    02:00 +18°C° 0 mm 2 m/s 756 mmHg 79%
    03:00 +18°C° 0 mm 2 m/s 757 mmHg 80%
    04:00 +18°C° 0 mm 2 m/s 757 mmHg 81%
    05:00 +17°C° 0 mm 2 m/s 757 mmHg 83%
    06:00 +20°C° 0 mm 2 m/s 757 mmHg 76%
    07:00 +23°C° 0 mm 2 m/s 757 mmHg 70%
    08:00 +26°C° 0 mm 1 m/s 757 mmHg 63%
    09:00 +27°C° 0 mm 1 m/s 757 mmHg 59%
    10:00 +29°C° 0 mm 1 m/s 757 mmHg 55%
    11:00 +30°C° 0 mm 1 m/s 757 mmHg 51%
    12:00 +31°C° 0 mm 1 m/s 757 mmHg 51%
    13:00 +31°C° 0 mm 2 m/s 757 mmHg 51%
    14:00 +31°C° 0 mm 2 m/s 757 mmHg 52%
    15:00 +30°C° 0.1 mm 2 m/s 757 mmHg 55%
    16:00 +29°C° 0.1 mm 2 m/s 757 mmHg 59%
    17:00 +28°C° 0.1 mm 1 m/s 757 mmHg 63%
    18:00 +27°C° 0 mm 1 m/s 757 mmHg 69%
    19:00 +25°C° 0 mm 1 m/s 757 mmHg 75%
    20:00 +23°C° 0 mm 1 m/s 757 mmHg 80%
    21:00 +22°C° 0 mm 1 m/s 757 mmHg 80%
    22:00 +22°C° 0 mm 1 m/s 757 mmHg 80%
    23:00 +21°C° 0 mm 1 m/s 758 mmHg 80%

    31 Maio, Sexta-feira

    Tempo Temperatura Precipitação Vento Pressão Humidade
    00:00 +21°C° 0 mm 1 m/s 757 mmHg 81%
    01:00 +21°C° 0 mm 1 m/s 757 mmHg 82%
    02:00 +20°C° 0 mm 2 m/s 757 mmHg 83%
    03:00 +20°C° 0.1 mm 2 m/s 757 mmHg 84%
    04:00 +19°C° 0.1 mm 3 m/s 758 mmHg 86%
    05:00 +19°C° 0.1 mm 4 m/s 758 mmHg 87%
    06:00 +20°C° 0.1 mm 5 m/s 758 mmHg 85%
    07:00 +21°C° 0.1 mm 5 m/s 758 mmHg 82%
    08:00 +21°C° 0.1 mm 5 m/s 758 mmHg 80%
    09:00 +22°C° 0.1 mm 5 m/s 759 mmHg 76%
    10:00 +23°C° 0.1 mm 5 m/s 759 mmHg 72%
    11:00 +26°C° 0.1 mm 5 m/s 759 mmHg 68%
    12:00 +25°C° 0 mm 5 m/s 759 mmHg 73%
    13:00 +23°C° 0 mm 5 m/s 759 mmHg 78%
    14:00 +22°C° 0 mm 5 m/s 759 mmHg 84%
    15:00 +21°C° 0.5 mm 6 m/s 758 mmHg 88%
    16:00 +20°C° 0.5 mm 6 m/s 758 mmHg 91%
    17:00 +19°C° 0.5 mm 6 m/s 758 mmHg 95%
    18:00 +19°C° 2.6 mm 6 m/s 758 mmHg 96%
    19:00 +19°C° 2.6 mm 6 m/s 759 mmHg 97%
    20:00 +17°C° 2.6 mm 6 m/s 759 mmHg 97%
    21:00 +17°C° 2.9 mm 6 m/s 759 mmHg 97%
    22:00 +17°C° 2.9 mm 6 m/s 759 mmHg 97%
    23:00 +16°C° 2.9 mm 6 m/s 759 mmHg 97%
    Mostrar mais